Flag for U.S.A. Weather past 2 weeks in Lexington, Virginia, U.S.A.

Now
69 °F

Partly cloudy.


Feels Like: 69 °F
Forecast: 65 / 89 °F
Wind: 12 mph from West

Location: Hot Springs / Ingalls

Current Time: Sep 1, 2014 at 10:02:49 PM

Latest Report: Sep 1, 2014 at 9:35 PM


Visibility: 10 mi

Pressure: 30.23 "Hg

Humidity: 70%

Dew point: 59 °F

Location of LexingtonLocation

Historic Weather in Lexington — Graph

°F

Lexington temperature yesterday

Maximum temperature yesterday: 76 °F (at 1:55 PM)
Minimum temperature yesterday: 65 °F (at 4:35 AM)
Average temperature yesterday: 68 °F

Past Weeks' High & Low Weather Summary

 TemperatureHumidityPressure
High76 °F (Aug 31, 1:55 PM)100% (Aug 18, 10:15 AM)30.36 "Hg (Aug 18, 10:15 AM)
Low51 °F (Aug 26, 5:15 AM)44% (Aug 26, 5:50 PM)29.95 "Hg (Aug 18, 5:40 PM)
Average65 °F84%30.22 "Hg
* Reported Aug 17 8:15 PM — Sep 1 8:55 PM, Lexington, Weather by CustomWeather, © 2014

Note: Actual official high and low records may vary slightly from our data, if they occured in-between our weather recording intervals... More about our weather records

Advertising

Lexington weather history for previous 24 hours

 ConditionsComfort  
Time TempWeatherWind HumidityBarometerVisibility
8:55 PM
Sep 1
69 °FPassing clouds.12 mph69%30.22 "Hg10 mi
8:35 PM69 °FSunny.10 mph68%30.21 "Hg10 mi
8:15 PM70 °FSunny.14 mph66%30.21 "Hg10 mi
7:55 PM70 °FScattered clouds.13 mph67%30.21 "Hg10 mi
7:35 PM70 °FSunny.12 mph66%30.20 "Hg10 mi
7:15 PM71 °FSunny.14 mph63%30.20 "Hg10 mi
6:55 PM71 °FSunny.13 mph63%30.20 "Hg10 mi
6:35 PM73 °FScattered clouds.13 mph60%30.20 "Hg10 mi
6:10 PM74 °FScattered clouds.10 mph57%30.20 "Hg10 mi
5:50 PM73 °FScattered clouds.13 mph60%30.20 "Hg10 mi
5:35 PM74 °FScattered clouds.14 mph59%30.21 "Hg10 mi
5:10 PM73 °FScattered clouds.15 mph63%30.21 "Hg10 mi
4:15 PM76 °FBroken clouds.15 mph58%30.20 "Hg10 mi
3:55 PM74 °FMostly cloudy.14 mph66%30.21 "Hg10 mi
3:15 PM74 °FPartly sunny.13 mph67%30.22 "Hg10 mi
2:55 PM75 °FBroken clouds.8 mph63%30.23 "Hg10 mi
2:35 PM74 °FOvercast.14 mph66%30.23 "Hg10 mi
2:15 PM73 °FPartly sunny.9 mph70%30.23 "Hg10 mi
1:55 PM74 °FCloudy.14 mph67%30.24 "Hg10 mi
1:35 PM72 °FMostly cloudy.10 mph70%30.23 "Hg10 mi
1:15 PM72 °FPartly sunny.14 mph73%30.24 "Hg10 mi
12:55 PM71 °FScattered clouds.17 mph73%30.24 "Hg10 mi
12:15 PM68 °FOvercast.14 mph86%30.24 "Hg10 mi
11:55 AM67 °FLow clouds.12 mph88%30.24 "Hg10 mi
11:15 AM65 °FLow clouds.14 mph100%30.24 "Hg10 mi
10:55 AM65 °FLow clouds.12 mph100%30.24 "Hg10 mi
10:35 AM65 °FFog.15 mph100%30.24 "Hg5 mi
10:10 AM65 °FLow clouds.12 mph100%30.24 "Hg10 mi
9:55 AM66 °FLow clouds.14 mph95%30.23 "Hg10 mi
9:15 AM65 °FLow clouds.16 mph100%30.23 "Hg10 mi
8:55 AM65 °FLow clouds.16 mph95%30.23 "Hg10 mi
8:35 AM65 °FLow clouds.14 mph100%30.23 "Hg10 mi
8:15 AM64 °FLow clouds.13 mph100%30.23 "Hg10 mi
7:55 AM64 °FLow clouds.13 mph100%30.23 "Hg10 mi
7:35 AM64 °FLow clouds.12 mph100%30.24 "Hg10 mi
7:15 AM64 °FLow clouds.13 mph100%30.23 "Hg10 mi
6:55 AM64 °FLow clouds.10 mph97%30.23 "Hg10 mi
6:35 AM64 °FOvercast.12 mph96%30.23 "Hg10 mi
6:15 AM64 °FOvercast.12 mph96%30.23 "Hg10 mi
5:55 AM64 °FOvercast.12 mph95%30.23 "Hg10 mi
5:35 AM64 °FOvercast.14 mph94%30.22 "Hg10 mi
5:15 AM64 °FLight rain. Mostly cloudy.14 mph92%30.23 "Hg10 mi
4:55 AM64 °FMostly cloudy.15 mph91%30.22 "Hg10 mi
4:15 AM65 °FPartly cloudy.15 mph88%30.22 "Hg10 mi
3:55 AM65 °FPassing clouds.15 mph88%30.22 "Hg10 mi
3:35 AM65 °FPassing clouds.14 mph88%30.22 "Hg10 mi
3:15 AM65 °FPassing clouds.15 mph87%30.22 "Hg10 mi
2:55 AM65 °FClear.17 mph88%30.22 "Hg10 mi
2:40 AM65 °FClear.15 mph89%30.22 "Hg10 mi
2:15 AM64 °FPassing clouds.10 mph95%30.22 "Hg10 mi
1:55 AM64 °FPassing clouds.10 mph95%30.23 "Hg10 mi
1:15 AM65 °FClear.13 mph90%30.23 "Hg10 mi
12:55 AM65 °FClear.13 mph91%30.23 "Hg10 mi
12:15 AM66 °FPassing clouds.15 mph91%30.23 "Hg10 mi
11:55 PM
Aug 31
66 °FPartly cloudy.16 mph91%30.24 "Hg10 mi
11:35 PM66 °FOvercast.14 mph93%30.25 "Hg10 mi
11:15 PM66 °FPartly cloudy.12 mph92%30.25 "Hg10 mi
10:55 PM66 °FPassing clouds.15 mph93%30.25 "Hg10 mi
10:15 PM66 °FPassing clouds.14 mph92%30.24 "Hg10 mi
Weather by CustomWeather, © 2014

See weather overviewHow to use our weather pages